Surface/Precipitation History
12/09/2016 03:45  to  12/10/2016 03:45
Change End Date:
Date/Time
(MST)
Sf
Temp Chem Water Layer Surface Precipitation
Sfc Pvt Sub Frz Factor Pct Dpth DpthThk IcePct Cond Salin FI Type Intens Accum Rate
12/10/2016 03:43 Ice Warning 0.9F - 26F 32F 95 1% - - 100% 1 mhos 134 - None None - -
12/10/2016 03:33 Ice Warning 0.5F - 26F 32F 95 1% - - 100% 1 mhos 131 - None None - -
12/10/2016 03:28 Ice Warning 0.5F - 26F 32F 95 1% - - 100% 1 mhos 130 - None None - -
12/10/2016 03:23 Ice Warning 0.5F - 26F 32F 95 1% - - 100% 1 mhos 130 - None None - -
12/10/2016 03:13 Ice Warning 1.0F - 26F 32F 95 1% - - 100% 1 mhos 131 - None None - -
12/10/2016 03:13 Ice Warning 1.0F - 26F 32F 95 1% - - 100% 1 mhos 131 - None None - -
12/10/2016 03:03 Ice Warning 1.0F - 26F 32F 95 1% - - 100% 1 mhos 132 - None None - -
12/10/2016 02:58 Ice Warning 1.0F - 26F 32F 95 1% - - 100% 1 mhos 130 - None None - -
12/10/2016 02:53 Ice Warning 1.0F - 26F 32F 95 1% - - 100% 1 mhos 131 - None None - -
12/10/2016 02:43 Ice Warning 1.0F - 26F 32F 95 1% - - 100% 1 mhos 131 - None None - -
12/10/2016 02:43 Ice Warning 1.0F - 26F 32F 95 1% - - 100% 1 mhos 131 - None None - -
12/10/2016 02:33 Ice Warning 1.4F - 26F 32F 95 0% - - 100% 1 mhos 130 - None None - -
12/10/2016 02:28 Ice Warning 1.4F - 26F 32F 95 1% - - 100% 1 mhos 131 - None None - -
12/10/2016 02:23 Ice Warning 1.4F - 26F 32F 95 0% - - 100% 1 mhos 129 - None None - -
12/10/2016 02:13 Ice Warning 1.4F - 26F 32F 95 1% - - 100% 1 mhos 130 - None None - -
Date/Time
(MST)
Sf
Temp Chem Water Layer Surface Precipitation
Sfc Pvt Sub Frz Factor Pct Dpth DpthThk IcePct Cond Salin FI Type Intens Accum Rate
12/10/2016 02:13 Ice Warning 1.4F - 26F 32F 95 1% - - 100% 1 mhos 130 - None None - -
12/10/2016 02:03 Ice Warning 1.2F - 26F 32F 95 0% - - 100% 1 mhos 126 - None None - -
12/10/2016 01:58 Ice Warning 1.0F - 26F 32F 95 0% - - 100% 1 mhos 127 - None None - -
12/10/2016 01:53 Ice Warning 1.0F - 26F 32F 95 0% - - 100% 1 mhos 126 - None None - -
12/10/2016 01:43 Ice Warning 0.9F - 26F 32F 95 0% - - 100% 1 mhos 121 - None None - -
12/10/2016 01:43 Ice Warning 0.9F - 26F 32F 95 0% - - 100% 1 mhos 121 - None None - -
12/10/2016 01:33 Ice Warning 0.3F - 26F 32F 95 0% - - 100% 1 mhos 120 - None None - -
12/10/2016 01:28 Ice Warning 0.5F - 26F 32F 95 0% - - 100% 1 mhos 121 - None None - -
12/10/2016 01:23 Ice Warning 0.5F - 26F 32F 95 0% - - 100% 1 mhos 121 - None None - -
12/10/2016 01:13 Ice Warning 0.9F - 26F 32F 95 0% - - 100% 1 mhos 123 - None None - -
12/10/2016 01:13 Ice Warning 0.9F - 26F 32F 95 0% - - 100% 1 mhos 123 - None None - -
12/10/2016 01:02 Ice Warning 1.6F - 26F 32F 95 0% - - 100% 1 mhos 126 - None None - -
12/10/2016 00:58 Ice Warning 1.8F - 26F 32F 95 0% - - 100% 1 mhos 123 - None None - -
12/10/2016 00:52 Ice Warning 1.8F - 26F 32F 95 0% - - 100% 1 mhos 126 - None None - -
12/10/2016 00:43 Ice Warning 1.6F - 26F 32F 95 0% - - 100% 1 mhos 122 - None None - -
Date/Time
(MST)
Sf
Temp Chem Water Layer Surface Precipitation
Sfc Pvt Sub Frz Factor Pct Dpth DpthThk IcePct Cond Salin FI Type Intens Accum Rate
12/10/2016 00:42 Ice Warning 1.6F - 26F 32F 95 0% - - 100% 1 mhos 122 - None None - -
12/10/2016 00:32 Ice Warning 1.4F - 26F 32F 95 0% - - 100% 1 mhos 122 - None None - -
12/10/2016 00:28 Ice Warning 1.6F - 26F 32F 95 0% - - 100% 1 mhos 121 - None None - -
12/10/2016 00:22 Ice Warning 1.6F - 26F 32F 95 0% - - 100% 1 mhos 121 - None None - -
12/10/2016 00:13 Ice Warning 1.8F - 26F 32F 95 0% - - 100% 1 mhos 121 - None None - -
12/10/2016 00:12 Ice Warning 1.8F - 26F 32F 95 0% - - 100% 1 mhos 120 - None None - -
12/10/2016 00:02 Ice Warning 1.6F - 26F 32F 95 0% - - 100% 1 mhos 121 - None None - -
12/09/2016 23:58 Ice Warning 1.4F - 26F 32F 95 0% - - 100% 1 mhos 121 - None None - -
12/09/2016 23:52 Ice Warning 1.6F - 26F 32F 95 0% - - 100% 1 mhos 120 - None None - -
12/09/2016 23:43 Ice Warning 1.4F - 26F 32F 95 0% - - 100% 1 mhos 120 - None None - -
12/09/2016 23:42 Ice Warning 1.4F - 26F 32F 95 0% - - 100% 1 mhos 119 - None None - -
12/09/2016 23:32 Ice Warning 1.4F - 26F 32F 95 0% - - 100% 1 mhos 118 - None None - -
12/09/2016 23:28 Ice Warning 1.4F - 26F 32F 95 0% - - 100% 1 mhos 119 - None None - -
12/09/2016 23:22 Ice Warning 1.2F - 26F 32F 95 0% - - 100% 1 mhos 118 - None None - -
12/09/2016 23:13 Ice Warning 1.0F - 26F 32F 95 0% - - 100% 1 mhos 116 - None None - -
Date/Time
(MST)
Sf
Temp Chem Water Layer Surface Precipitation
Sfc Pvt Sub Frz Factor Pct Dpth DpthThk IcePct Cond Salin FI Type Intens Accum Rate
12/09/2016 23:12 Ice Warning 1.2F - 26F 32F 95 0% - - 100% 1 mhos 116 - None None - -
12/09/2016 23:02 Ice Warning 0.9F - 26F 32F 95 0% - - 100% 1 mhos 114 - None None - -
12/09/2016 22:58 Ice Warning 0.7F - 26F 32F 95 0% - - 100% 1 mhos 114 - None None - -
12/09/2016 22:52 Ice Warning 0.7F - 26F 32F 95 0% - - 100% 1 mhos 113 - None None - -
12/09/2016 22:43 Ice Warning 0.7F - 26F 32F 95 0% - - 100% 1 mhos 112 - None None - -
12/09/2016 22:42 Ice Warning 0.7F - 26F 32F 95 0% - - 100% 1 mhos 113 - None None - -
12/09/2016 22:32 Ice Warning 0.7F - 26F 32F 95 0% - - 100% 1 mhos 113 - None None - -
12/09/2016 22:28 Ice Warning 0.7F - 26F 32F 95 0% - - 100% 1 mhos 111 - None None - -
12/09/2016 22:21 Ice Warning 0.7F - 26F 32F 95 0% - - 100% 1 mhos 112 - None None - -
12/09/2016 22:13 Ice Warning 0.9F - 26F 32F 95 0% - - 100% 1 mhos 114 - None None - -
12/09/2016 22:11 Ice Warning 0.9F - 26F 32F 95 0% - - 100% 1 mhos 114 - None None - -
12/09/2016 22:01 Ice Warning 1.0F - 26F 32F 95 0% - - 100% 1 mhos 112 - None None - -
12/09/2016 21:58 Ice Warning 1.0F - 26F 32F 95 0% - - 100% 1 mhos 113 - None None - -
12/09/2016 21:51 Ice Warning 1.0F - 26F 32F 95 0% - - 100% 1 mhos 111 - None None - -
12/09/2016 21:43 Ice Warning 1.0F - 26F 32F 95 0% - - 100% 1 mhos 111 - None None - -
Date/Time
(MST)
Sf
Temp Chem Water Layer Surface Precipitation
Sfc Pvt Sub Frz Factor Pct Dpth DpthThk IcePct Cond Salin FI Type Intens Accum Rate
12/09/2016 21:41 Ice Warning 1.0F - 26F 32F 95 0% - - 100% 1 mhos 111 - None None - -
12/09/2016 21:31 Ice Warning 0.9F - 26F 32F 95 0% - - 100% 1 mhos 109 - None None - -
12/09/2016 21:28 Ice Warning 0.9F - 26F 32F 95 0% - - 100% 1 mhos 108 - None None - -
12/09/2016 21:21 Ice Warning 0.9F - 26F 32F 95 0% - - 100% 1 mhos 109 - None None - -
12/09/2016 21:13 Ice Warning 0.9F - 26F 32F 95 0% - - 100% 1 mhos 111 - None None - -
12/09/2016 21:11 Ice Warning 1.2F - 26F 32F 95 0% - - 100% 1 mhos 110 - None None - -
12/09/2016 21:01 Ice Warning 0.9F - 26F 32F 95 0% - - 100% 1 mhos 108 - None None - -
12/09/2016 20:58 Ice Warning 1.0F - 26F 32F 95 0% - - 100% 1 mhos 107 - None None - -
12/09/2016 20:51 Ice Warning 0.9F - 26F 32F 95 0% - - 100% 1 mhos 108 - None None - -
12/09/2016 20:43 Ice Warning 0.9F - 26F 32F 95 0% - - 100% 1 mhos 107 - None None - -
12/09/2016 20:41 Ice Warning 0.9F - 26F 32F 95 0% - - 100% 1 mhos 108 - None None - -
12/09/2016 20:31 Ice Warning 0.9F - 26F 32F 95 0% - - 100% 1 mhos 109 - None None - -
12/09/2016 20:28 Ice Warning 0.9F - 26F 32F 95 0% - - 100% 1 mhos 107 - None None - -
12/09/2016 20:21 Ice Warning 0.9F - 26F 32F 95 0% - - 100% 1 mhos 106 - None None - -
12/09/2016 20:13 Ice Warning 0.9F - 26F 32F 95 0% - - 100% 1 mhos 107 - None None - -
Date/Time
(MST)
Sf
Temp Chem Water Layer Surface Precipitation
Sfc Pvt Sub Frz Factor Pct Dpth DpthThk IcePct Cond Salin FI Type Intens Accum Rate
12/09/2016 20:11 Ice Warning 1.2F - 26F 32F 95 0% - - 100% 1 mhos 105 - None None - -
12/09/2016 20:01 Ice Warning 1.2F - 26F 32F 95 0% - - 100% 1 mhos 106 - None None - -
12/09/2016 19:58 Ice Warning 1.2F - 26F 32F 95 0% - - 100% 1 mhos 106 - None None - -
12/09/2016 19:51 Ice Warning 1.0F - 26F 32F 95 0% - - 100% 1 mhos 106 - None None - -
12/09/2016 19:43 Ice Warning 1.0F - 26F 32F 95 0% - - 100% 1 mhos 105 - None None - -
12/09/2016 19:41 Ice Warning 1.0F - 26F 32F 95 0% - - 100% 1 mhos 104 - None None - -
12/09/2016 19:31 Ice Warning 0.9F - 26F 32F 95 0% - - 100% 1 mhos 104 - None None - -
12/09/2016 19:28 Ice Warning 0.9F - 26F 32F 95 0% - - 100% 1 mhos 104 - None None - -
12/09/2016 19:21 Ice Warning 0.7F - 26F 32F 95 0% - - 100% 1 mhos 103 - None None - -
12/09/2016 19:10 Ice Warning 0.5F - 26F 32F 95 0% - - 100% 1 mhos 100 - None None - -
12/09/2016 19:00 Ice Warning 0.5F - 26F 32F 95 0% - - 100% 1 mhos 101 - None None - -
12/09/2016 18:58 Ice Warning 0.3F - 26F 32F 95 0% - - 100% 1 mhos 101 - None None - -
12/09/2016 18:50 Ice Warning 0.5F - 26F 32F 95 0% - - 100% 1 mhos 101 - None None - -
12/09/2016 18:43 Ice Warning 0.5F - 26F 32F 95 0% - - 100% 1 mhos 99 - None None - -
12/09/2016 18:40 Ice Warning 0.5F - 26F 32F 95 0% - - 100% 1 mhos 100 - None None - -
Date/Time
(MST)
Sf
Temp Chem Water Layer Surface Precipitation
Sfc Pvt Sub Frz Factor Pct Dpth DpthThk IcePct Cond Salin FI Type Intens Accum Rate
12/09/2016 18:30 Ice Warning 0.1F - 26F 32F 95 0% - - 100% 1 mhos 98 - None None - -
12/09/2016 18:28 Ice Warning 0.1F - 26F 32F 95 0% - - 100% 1 mhos 99 - None None - -
12/09/2016 18:20 Ice Warning 0.1F - 26F 32F 95 0% - - 100% 1 mhos 100 - None None - -
12/09/2016 18:13 Ice Warning 0.1F - 26F 32F 95 0% - - 100% 1 mhos 99 - None None - -
12/09/2016 18:10 Ice Warning 0.3F - 26F 32F 95 0% - - 100% 1 mhos 100 - None None - -
12/09/2016 18:00 Ice Warning 0.3F - 26F 32F 95 0% - - 100% 1 mhos 99 - None None - -
12/09/2016 17:58 Ice Warning 0.3F - 26F 32F 95 0% - - 100% 1 mhos 99 - None None - -
12/09/2016 17:50 Ice Warning 0.5F - 27F 32F 95 0% - - 100% 1 mhos 99 - None None - -
12/09/2016 17:43 Ice Warning 0.3F - 27F 32F 95 0% - - 100% 1 mhos 100 - None None - -
12/09/2016 17:40 Ice Warning 0.3F - 26F 32F 95 0% - - 100% 1 mhos 100 - None None - -
12/09/2016 17:30 Ice Warning 0.5F - 27F 32F 95 0% - - 100% 1 mhos 99 - None None - -
12/09/2016 17:28 Ice Warning 0.5F - 27F 32F 95 0% - - 100% 1 mhos 100 - None None - -
12/09/2016 17:20 Ice Warning 0.7F - 27F 32F 95 0% - - 100% 1 mhos 98 - None None - -
12/09/2016 17:13 Ice Warning 0.7F - 27F 32F 95 0% - - 100% 1 mhos 99 - None None - -
12/09/2016 17:10 Ice Warning 0.7F - 27F 32F 95 0% - - 100% 1 mhos 98 - None None - -
Date/Time
(MST)
Sf
Temp Chem Water Layer Surface Precipitation
Sfc Pvt Sub Frz Factor Pct Dpth DpthThk IcePct Cond Salin FI Type Intens Accum Rate
12/09/2016 17:00 Ice Warning 0.7F - 27F 32F 95 0% - - 100% 1 mhos 100 - None None - -
12/09/2016 16:58 Ice Warning 0.9F - 27F 32F 95 0% - - 100% 1 mhos 100 - None None - -
12/09/2016 16:50 Ice Warning 1.2F - 27F 32F 95 0% - - 100% 1 mhos 101 - None None - -
12/09/2016 16:43 Ice Warning 1.4F - 27F 32F 95 0% - - 100% 1 mhos 100 - None None - -
12/09/2016 16:40 Ice Warning 1.6F - 27F 32F 95 0% - - 100% 1 mhos 101 - None None - -
12/09/2016 16:30 Ice Warning 2.1F - 27F 32F 95 0% - - 100% 1 mhos 102 - None None - -
12/09/2016 16:28 Ice Warning 2.3F - 27F 32F 95 0% - - 100% 1 mhos 102 - None None - -
12/09/2016 16:20 Ice Warning 2.3F - 27F 32F 95 0% - - 100% 1 mhos 102 - None None - -
12/09/2016 16:13 Ice Warning 2.5F - 27F 32F 95 0% - - 100% 1 mhos 102 - None None - -
12/09/2016 16:09 Ice Warning 2.5F - 27F 32F 95 0% - - 100% 1 mhos 103 - None None - -
12/09/2016 15:59 Ice Warning 2.7F - 27F 32F 95 0% - - 100% 1 mhos 102 - None None - -
12/09/2016 15:58 Ice Warning 2.7F - 27F 32F 95 0% - - 100% 1 mhos 103 - None None - -
12/09/2016 15:49 Ice Warning 3.0F - 27F 32F 95 0% - - 100% 1 mhos 103 - None None - -
12/09/2016 15:43 Ice Warning 3.7F - 27F 32F 95 0% - - 100% 1 mhos 103 - None None - -
12/09/2016 15:39 Ice Warning 3.7F - 27F 32F 95 0% - - 100% 1 mhos 105 - None None - -
Date/Time
(MST)
Sf
Temp Chem Water Layer Surface Precipitation
Sfc Pvt Sub Frz Factor Pct Dpth DpthThk IcePct Cond Salin FI Type Intens Accum Rate
12/09/2016 15:29 Ice Warning 3.9F - 27F 32F 95 0% - - 100% 1 mhos 103 - None None - -
12/09/2016 15:28 Ice Warning 4.1F - 27F 32F 95 0% - - 100% 1 mhos 105 - None None - -
12/09/2016 15:19 Ice Warning 4.3F - 27F 32F 95 0% - - 100% 1 mhos 105 - None None - -
12/09/2016 15:13 Ice Warning 4.6F - 27F 32F 95 0% - - 100% 1 mhos 104 - None None - -
12/09/2016 15:09 Ice Warning 4.6F - 27F 32F 95 0% - - 100% 1 mhos 104 - None None - -
12/09/2016 14:59 Ice Warning 4.8F - 27F 32F 95 0% - - 100% 1 mhos 105 - None None - -
12/09/2016 14:58 Ice Warning 4.8F - 27F 32F 95 0% - - 100% 1 mhos 105 - None None - -
12/09/2016 14:49 Ice Warning 5.0F - 27F 32F 95 0% - - 100% 1 mhos 105 - None None - -
12/09/2016 14:43 Ice Warning 5.0F - 27F 32F 95 0% - - 100% 1 mhos 103 - None None - -
12/09/2016 14:39 Ice Warning 4.8F - 27F 32F 95 0% - - 100% 1 mhos 104 - None None - -
12/09/2016 14:29 Ice Warning 5.2F - 27F 32F 95 0% - - 100% 1 mhos 104 - None None - -
12/09/2016 14:28 Ice Warning 5.4F - 27F 32F 95 0% - - 100% 1 mhos 104 - None None - -
12/09/2016 14:19 Ice Warning 5.5F - 27F 32F 95 0% - - 100% 1 mhos 103 - None None - -
12/09/2016 14:13 Ice Warning 5.0F - 27F 32F 95 0% - - 100% 1 mhos 101 - None None - -
12/09/2016 14:09 Ice Warning 4.5F - 27F 32F 95 0% - - 100% 1 mhos 100 - None None - -
Date/Time
(MST)
Sf
Temp Chem Water Layer Surface Precipitation
Sfc Pvt Sub Frz Factor Pct Dpth DpthThk IcePct Cond Salin FI Type Intens Accum Rate
12/09/2016 13:59 Ice Warning 3.7F - 27F 32F 95 0% - - 100% 1 mhos 98 - None None - -
12/09/2016 13:58 Ice Warning 3.6F - 27F 32F 95 0% - - 100% 1 mhos 97 - None None - -
12/09/2016 13:49 Ice Warning 2.8F - 27F 32F 95 0% - - 100% 1 mhos 95 - None None - -
12/09/2016 13:43 Ice Warning 2.7F - 27F 32F 95 0% - - 100% 1 mhos 95 - None None - -
12/09/2016 13:39 Ice Warning 2.8F - 27F 32F 95 0% - - 100% 1 mhos 94 - None None - -
12/09/2016 13:29 Ice Warning 2.5F - 27F 32F 95 0% - - 100% 1 mhos 94 - None None - -
12/09/2016 13:28 Ice Warning 2.5F - 27F 32F 95 0% - - 100% 1 mhos 95 - None None - -
12/09/2016 13:19 Ice Warning 2.7F - 27F 32F 95 0% - - 100% 1 mhos 93 - None None - -
12/09/2016 13:13 Ice Warning 2.3F - 27F 32F 95 0% - - 100% 1 mhos 94 - None None - -
12/09/2016 13:08 Ice Warning 2.3F - 27F 32F 95 0% - - 100% 1 mhos 94 - None None - -
12/09/2016 12:58 Ice Warning 2.5F - 27F 32F 95 0% - - 100% 1 mhos 94 - None None - -
12/09/2016 12:58 Ice Warning 2.5F - 27F 32F 95 0% - - 100% 1 mhos 94 - None None - -
12/09/2016 12:48 Ice Warning 2.5F - 27F 32F 95 0% - - 100% 1 mhos 94 - None None - -
12/09/2016 12:43 Ice Warning 2.5F - 27F 32F 95 0% - - 100% 1 mhos 94 - None None - -
12/09/2016 12:38 Ice Warning 2.5F - 27F 32F 95 0% - - 100% 1 mhos 94 - None None - -
Date/Time
(MST)
Sf
Temp Chem Water Layer Surface Precipitation
Sfc Pvt Sub Frz Factor Pct Dpth DpthThk IcePct Cond Salin FI Type Intens Accum Rate
12/09/2016 12:28 Ice Warning 2.5F - 27F 32F 95 0% - - 100% 1 mhos 95 - Yes - - -
12/09/2016 12:28 Ice Warning 2.5F - 27F 32F 95 0% - - 100% 1 mhos 95 - None None - -
12/09/2016 12:18 Ice Warning 3.4F - 27F 32F 95 0% - - 100% 1 mhos 94 - None None - -
12/09/2016 12:13 Ice Warning 2.7F - 27F 32F 95 0% - - 100% 1 mhos 94 - None None - -
12/09/2016 12:08 Ice Warning 2.7F - 27F 32F 95 0% - - 100% 1 mhos 96 - None None - -
12/09/2016 11:58 Ice Warning 3.4F - 27F 32F 95 0% - - 100% 1 mhos 98 - Yes - - -
12/09/2016 11:58 Ice Warning 3.4F - 27F 32F 95 0% - - 100% 1 mhos 98 - Yes - - -
12/09/2016 11:48 Ice Warning 3.0F - 27F 32F 95 0% - - 100% 1 mhos 98 - Yes - - -
12/09/2016 11:43 Ice Warning 3.0F - 27F 32F 95 0% - - 100% 1 mhos 98 - None None - -
12/09/2016 11:38 Ice Warning 2.8F - 27F 32F 95 0% - - 100% 1 mhos 98 - None None - -
12/09/2016 11:28 Ice Warning 2.7F - 27F 32F 95 0% - - 100% 1 mhos 99 - None None - -
12/09/2016 11:28 Ice Warning 2.7F - 27F 32F 95 0% - - 100% 1 mhos 99 - None None - -
12/09/2016 11:18 Ice Warning 2.7F - 27F 32F 95 0% - - 100% 1 mhos 100 - Yes - - -
12/09/2016 11:13 Ice Warning 3.0F - 27F 32F 95 0% - - 100% 1 mhos 102 - None None - -
12/09/2016 11:08 Ice Warning 3.0F - 27F 32F 95 0% - - 100% 1 mhos 105 - Yes - - -
Date/Time
(MST)
Sf
Temp Chem Water Layer Surface Precipitation
Sfc Pvt Sub Frz Factor Pct Dpth DpthThk IcePct Cond Salin FI Type Intens Accum Rate
12/09/2016 10:58 Ice Warning 3.4F - 27F 32F 95 0% - - 100% 1 mhos 111 - Yes - - -
12/09/2016 10:58 Ice Warning 3.4F - 27F 32F 95 0% - - 100% 1 mhos 111 - Yes - - -
12/09/2016 10:48 Ice Warning 3.9F - 27F 32F 95 0% - - 100% 1 mhos 114 - Yes - - -
12/09/2016 10:43 Ice Warning 4.1F - 27F 32F 95 0% - - 100% 1 mhos 116 - Yes - - -
12/09/2016 10:38 Ice Warning 4.1F - 27F 32F 95 0% - - 100% 1 mhos 120 - None None - -
12/09/2016 10:28 Ice Warning 4.3F - 27F 32F 95 0% - - 100% 1 mhos 125 - None None - -
12/09/2016 10:27 Ice Warning 4.3F - 27F 32F 95 0% - - 100% 1 mhos 125 - None None - -
12/09/2016 10:17 Ice Warning 3.4F - 27F 32F 95 0% - - 100% 1 mhos 128 - None None - -
12/09/2016 10:13 Ice Warning 3.4F - 27F 32F 95 1% - - 100% 1 mhos 132 - None None - -
12/09/2016 10:07 Ice Warning 3.0F - 27F 32F 95 1% - - 100% 1 mhos 137 - None None - -
12/09/2016 09:58 Ice Warning 3.0F - 27F 32F 95 1% - - 100% 1 mhos 142 - Yes - - -
12/09/2016 09:57 Ice Warning 3.0F - 27F 32F 95 1% - - 100% 1 mhos 142 - Yes - - -
12/09/2016 09:47 Ice Warning 3.6F - 27F 32F 95 1% - - 100% 1 mhos 156 - Yes - - -
12/09/2016 09:43 Ice Warning 3.7F - 27F 32F 95 1% - - 99% 1 mhos 158 - Yes - - -
12/09/2016 09:37 Ice Warning 3.4F - 27F 32F 95 1% - - 100% 1 mhos 158 - Yes - - -
Date/Time
(MST)
Sf
Temp Chem Water Layer Surface Precipitation
Sfc Pvt Sub Frz Factor Pct Dpth DpthThk IcePct Cond Salin FI Type Intens Accum Rate
12/09/2016 09:28 Ice Warning 2.8F - 27F 32F 95 1% - - 100% 1 mhos 156 - None None - -
12/09/2016 09:27 Ice Warning 2.8F - 27F 32F 95 1% - - 100% 1 mhos 157 - None None - -
12/09/2016 09:17 Ice Warning 2.7F - 27F 32F 95 1% - - 100% 1 mhos 156 - None None - -
12/09/2016 09:13 Ice Warning 2.8F - 27F 32F 95 1% - - 100% 1 mhos 157 - Yes - - -
12/09/2016 09:07 Ice Warning 2.7F - 27F 32F 95 1% - - 100% 1 mhos 158 - None None - -
12/09/2016 08:58 Ice Warning 2.1F - 27F 32F 95 1% - - 100% 1 mhos 154 - None None - -
12/09/2016 08:57 Ice Warning 2.1F - 27F 32F 95 1% - - 100% 1 mhos 155 - None None - -
12/09/2016 08:47 Ice Warning 1.8F - 27F 32F 95 1% - - 100% 1 mhos 154 - None None - -
12/09/2016 08:43 Ice Warning 1.8F - 27F 32F 95 1% - - 100% 1 mhos 155 - Yes - - -
12/09/2016 08:37 Ice Warning 1.8F - 27F 32F 95 1% - - 100% 1 mhos 153 - Yes - - -
12/09/2016 08:28 Ice Warning 1.4F - 28F 32F 95 1% - - 100% 1 mhos 156 - Yes - - -
12/09/2016 08:27 Ice Warning 1.4F - 27F 32F 95 1% - - 100% 1 mhos 156 - Yes - - -
12/09/2016 08:17 Ice Warning 1.0F - 28F 32F 95 1% - - 100% 1 mhos 156 - Yes - - -
12/09/2016 08:13 Ice Warning 1.0F - 27F 32F 95 1% - - 100% 1 mhos 158 - None None - -
12/09/2016 08:07 Ice Warning 0.9F - 28F 32F 95 1% - - 100% 1 mhos 159 - None None - -
Date/Time
(MST)
Sf
Temp Chem Water Layer Surface Precipitation
Sfc Pvt Sub Frz Factor Pct Dpth DpthThk IcePct Cond Salin FI Type Intens Accum Rate
12/09/2016 07:58 Ice Warning 0.9F - 28F 32F 95 1% - - 100% 1 mhos 159 - Yes - - -
12/09/2016 07:57 Ice Warning 0.9F - 28F 32F 95 1% - - 100% 1 mhos 161 - Yes - - -
12/09/2016 07:47 Ice Warning 0.5F - 28F 32F 95 1% - - 100% 1 mhos 164 - Yes - - -
12/09/2016 07:43 Ice Warning 0.7F - 28F 32F 95 1% - - 100% 1 mhos 165 - Yes - - -
12/09/2016 07:36 Ice Warning 0.9F - 28F 32F 95 1% - - 100% 1 mhos 167 - Yes - - -
12/09/2016 07:28 Ice Warning 0.7F - 28F 32F 95 1% - - 100% 1 mhos 176 - Yes - - -
12/09/2016 07:26 Ice Warning 0.5F - 28F 32F 95 1% - - 100% 1 mhos 178 - Yes - - -
12/09/2016 07:16 Ice Warning 0.5F - 28F 32F 95 1% - - 99% 1 mhos 182 - Yes - - -
12/09/2016 07:13 Ice Warning 0.5F - 28F 32F 95 1% - - 99% 1 mhos 187 - Yes - - -
12/09/2016 07:06 Ice Warning 0.5F - 28F 32F 95 1% - - 99% 1 mhos 191 - Yes - - -
12/09/2016 06:58 Ice Warning 0.7F - 28F 32F 95 1% - - 99% 1 mhos 197 - Yes - - -
12/09/2016 06:56 Ice Warning 0.5F - 28F 32F 95 1% - - 99% 1 mhos 204 - Yes - - -
12/09/2016 06:46 Ice Warning 0.5F - 28F 32F 95 1% - - 99% 1 mhos 204 - Yes - - -
12/09/2016 06:43 Ice Warning 0.5F - 28F 32F 95 1% - - 99% 1 mhos 206 - Yes - - -
12/09/2016 06:36 Ice Warning 0.5F - 28F 32F 95 1% - - 99% 1 mhos 209 - Yes - - -
Date/Time
(MST)
Sf
Temp Chem Water Layer Surface Precipitation
Sfc Pvt Sub Frz Factor Pct Dpth DpthThk IcePct Cond Salin FI Type Intens Accum Rate
12/09/2016 06:28 Ice Warning 0.5F - 28F 32F 95 1% - - 99% 1 mhos 218 - Yes - - -
12/09/2016 06:26 Ice Warning 0.5F - 28F 32F 95 1% - - 99% 1 mhos 222 - Yes - - -
12/09/2016 06:16 Ice Warning 0.5F - 28F 32F 95 1% - - 99% 1 mhos 235 - None None - -
12/09/2016 06:13 Ice Warning 0.5F - 28F 32F 95 1% - - 99% 1 mhos 239 - Yes - - -
12/09/2016 06:06 Ice Warning 0.5F - 28F 32F 95 1% - - 99% 1 mhos 238 - Yes - - -
12/09/2016 05:58 Error - - 28F - - - - - - - - - Yes - - -
12/09/2016 05:56 Dry 0.3F - 28F - - - - - - 2 mhos 260 - Yes - - -
12/09/2016 05:46 Ice Warning 0.1F - 28F 32F 95 1% - - 99% 2 mhos 261 - Yes - - -
12/09/2016 05:43 Ice Warning 0.1F - 28F 32F 95 1% - - 99% 1 mhos 257 - Yes - - -
12/09/2016 05:36 Ice Warning 0.3F - 28F 32F 95 1% - - 99% 1 mhos 256 - Yes - - -
12/09/2016 05:28 Ice Warning 0.3F - 28F 32F 95 1% - - 99% 2 mhos 276 - Yes - - -
12/09/2016 05:26 Ice Warning 0.5F - 28F 32F 95 1% - - 99% 2 mhos 286 - Yes - - -
12/09/2016 05:16 Ice Warning 0.3F - 28F 32F 95 1% - - 99% 2 mhos 346 - Yes - - -
12/09/2016 05:13 Ice Warning 0.3F - 28F 32F 95 1% - - 99% 2 mhos 349 - Yes - - -
12/09/2016 05:06 Ice Warning 0.3F - 28F 32F 95 1% - - 99% 2 mhos 355 - Yes - - -
Date/Time
(MST)
Sf
Temp Chem Water Layer Surface Precipitation
Sfc Pvt Sub Frz Factor Pct Dpth DpthThk IcePct Cond Salin FI Type Intens Accum Rate
12/09/2016 04:58 Ice Warning 0.3F - 28F 32F 95 1% - - 99% 2 mhos 378 - Yes - - -
12/09/2016 04:55 Ice Warning 0.1F - 28F 32F 95 1% - - 99% 2 mhos 387 - Yes - - -
12/09/2016 04:45 Ice Warning 0.1F - 28F 32F 95 2% - - 99% 2 mhos 404 - Yes - - -
12/09/2016 04:43 Ice Warning 0.3F - 28F 32F 95 2% - - 99% 2 mhos 395 - Yes - - -
12/09/2016 04:35 Ice Warning 0.1F - 28F 32F 95 2% - - 99% 2 mhos 395 - Yes - - -
12/09/2016 04:28 Ice Warning 0.3F - 28F 32F 95 2% - - 99% 2 mhos 398 - Yes - - -
12/09/2016 04:25 Dry 0.3F - 28F - - - - - - 2 mhos 399 - Yes - - -
12/09/2016 04:15 Ice Warning 0.3F - 28F 32F 95 2% - - 99% 2 mhos 403 - Yes - - -
12/09/2016 04:13 Ice Warning 0.1F - 28F 32F 95 2% - - 99% 2 mhos 403 - Yes - - -
12/09/2016 04:05 Ice Warning 0.3F - 28F 32F 95 2% - - 99% 2 mhos 411 - None None - -
12/09/2016 03:58 Ice Warning 0.0F - 28F 32F 95 2% - - 99% 2 mhos 412 - Yes - - -
12/09/2016 03:55 Ice Warning 0.3F - 28F 32F 95 2% - - 99% 2 mhos 397 - Yes - - -
12/09/2016 03:45 Ice Warning 0.1F - 28F 32F 95 2% - - 99% 2 mhos 397 - None None - -
Change End Date:

Copyright © 1998-2015 Vaisala, Inc.
All Rights Reserved
Send comments about the data to:
SCAN Web ® is a registered trademark of Vaisala, Inc.
SCAN Web Version 6.0